,,,PA_Meas_PMT16A,,PR_Meas_QMR101_102,,RH_Meas_QMH101,,SR_Meas_QMS101,,TA_Meas_QMH101,,GenWind,,GenWind,
date,time,status,PA,status,PR,status,RH,status,SR,status,TA,status,DirAvg,status,SpdAvg,
2009-05-02, 00:00:04,VALID,1005.31,VALID,0,VALID,93.7589,VALID,0,VALID,24.5601,VALID,304,VALID,0.567578,
2009-05-02, 00:01:04,VALID,1005.31,VALID,0,VALID,93.8123,VALID,0,VALID,24.562,VALID,304,VALID,0.342578,
2009-05-02, 00:02:04,VALID,1005.29,VALID,0,VALID,93.8734,VALID,0,VALID,24.5193,VALID,304,VALID,0.178906,
2009-05-02, 00:03:04,VALID,1005.3,VALID,0,VALID,93.9573,VALID,0.100563,VALID,24.5406,VALID,304,VALID,0,
2009-05-02, 00:04:04,VALID,1005.26,VALID,0,VALID,94.0412,VALID,0,VALID,24.5193,VALID,304,VALID,0.101172,
2009-05-02, 00:05:04,VALID,1005.25,VALID,0,VALID,94.0336,VALID,0,VALID,24.5388,VALID,304,VALID,0.345313,
2009-05-02, 00:06:04,VALID,1005.23,VALID,0,VALID,94.0717,VALID,0,VALID,24.5406,VALID,304,VALID,0.13125,
2009-05-02, 00:07:04,VALID,1005.18,VALID,0,VALID,94.1251,VALID,0,VALID,24.5388,VALID,304,VALID,0,
2009-05-02, 00:08:04,VALID,1005.17,VALID,0,VALID,94.1404,VALID,0,VALID,24.5601,VALID,304,VALID,0,
2009-05-02, 00:09:04,VALID,1005.16,VALID,0,VALID,94.209,VALID,0.100563,VALID,24.5796,VALID,304,VALID,0,
2009-05-02, 00:10:04,VALID,1005.13,VALID,0,VALID,94.2243,VALID,0,VALID,24.6185,VALID,304,VALID,0.352734,
2009-05-02, 00:11:04,VALID,1005.1,VALID,0,VALID,94.1633,VALID,0,VALID,24.599,VALID,304,VALID,0.266016,
2009-05-02, 00:12:04,VALID,1005.09,VALID,0,VALID,94.087,VALID,0.100563,VALID,24.5582,VALID,304,VALID,0.290234,
2009-05-02, 00:13:04,VALID,1005.07,VALID,0,VALID,93.9878,VALID,0,VALID,24.4998,VALID,304,VALID,0.428516,
2009-05-02, 00:14:04,VALID,1005.08,VALID,0,VALID,94.0336,VALID,0,VALID,24.4804,VALID,304,VALID,0.400391,
2009-05-02, 00:15:04,VALID,1005.08,VALID,0,VALID,93.9878,VALID,0.100563,VALID,24.4822,VALID,304,VALID,0.291016,
2009-05-02, 00:16:04,VALID,1005.05,VALID,0,VALID,94.1022,VALID,0.100563,VALID,24.4609,VALID,304,VALID,0.368359,
2009-05-02, 00:17:04,VALID,1005.04,VALID,0,VALID,94.209,VALID,0,VALID,24.4609,VALID,304,VALID,0.163281,
2009-05-02, 00:18:04,VALID,1005.03,VALID,0,VALID,94.2624,VALID,0,VALID,24.5212,VALID,304,VALID,0.330859,
2009-05-02, 00:19:04,VALID,1005.04,VALID,0,VALID,94.3082,VALID,0,VALID,24.5193,VALID,304,VALID,0.216016,
2009-05-02, 00:20:04,VALID,1005.05,VALID,0,VALID,94.2701,VALID,0,VALID,24.5174,VALID,304,VALID,0.146875,
2009-05-02, 00:21:04,VALID,1005.03,VALID,0,VALID,94.2701,VALID,0,VALID,24.5193,VALID,304,VALID,0.207031,
2009-05-02, 00:22:04,VALID,1005.03,VALID,0,VALID,94.2624,VALID,0,VALID,24.5193,VALID,304,VALID,0.266406,
2009-05-02, 00:23:04,VALID,1004.99,VALID,0,VALID,94.3082,VALID,0,VALID,24.5193,VALID,304,VALID,0.158984,
2009-05-02, 00:24:04,VALID,1004.97,VALID,0,VALID,94.3311,VALID,0.100563,VALID,24.5388,VALID,304,VALID,0.137109,
2009-05-02, 00:25:04,VALID,1004.97,VALID,0,VALID,94.3692,VALID,0,VALID,24.5582,VALID,304,VALID,0,
2009-05-02, 00:26:04,VALID,1004.93,VALID,0,VALID,94.3387,VALID,0.100563,VALID,24.5582,VALID,304,VALID,0.148438,
2009-05-02, 00:27:04,VALID,1004.92,VALID,0,VALID,94.3311,VALID,0,VALID,24.5796,VALID,304,VALID,0.132031,
2009-05-02, 00:28:04,VALID,1004.88,VALID,0,VALID,94.3235,VALID,0,VALID,24.5777,VALID,304,VALID,0.191406,
2009-05-02, 00:29:04,VALID,1004.88,VALID,0,VALID,94.2853,VALID,0,VALID,24.5582,VALID,304,VALID,0.281641,
2009-05-02, 00:30:04,VALID,1004.87,VALID,0,VALID,94.2777,VALID,0,VALID,24.5388,VALID,304,VALID,0.348828,
2009-05-02, 00:31:04,VALID,1004.83,VALID,0,VALID,94.2167,VALID,0.100563,VALID,24.5212,VALID,304,VALID,0.216797,
2009-05-02, 00:32:04,VALID,1004.82,VALID,0,VALID,94.1785,VALID,0.100563,VALID,24.4804,VALID,304,VALID,0.246094,
2009-05-02, 00:33:04,VALID,1004.77,VALID,0,VALID,94.1556,VALID,0.100563,VALID,24.4414,VALID,304,VALID,0.240234,
2009-05-02, 00:34:04,VALID,1004.78,VALID,0,VALID,94.148,VALID,0,VALID,24.4025,VALID,304,VALID,0.162891,
2009-05-02, 00:35:04,VALID,1004.75,VALID,0,VALID,94.2243,VALID,0,VALID,24.422,VALID,304,VALID,0.176563,
2009-05-02, 00:36:04,VALID,1004.7,VALID,0,VALID,94.2167,VALID,0,VALID,24.422,VALID,304,VALID,0.0171875,
2009-05-02, 00:37:04,VALID,1004.7,VALID,0,VALID,94.2319,VALID,0.100563,VALID,24.4238,VALID,304,VALID,0.0304688,
2009-05-02, 00:38:04,VALID,1004.66,VALID,0,VALID,94.3006,VALID,0,VALID,24.4025,VALID,304,VALID,0.151953,
2009-05-02, 00:39:04,VALID,1004.67,VALID,0,VALID,94.354,VALID,0,VALID,24.4433,VALID,304,VALID,0.0632813,
2009-05-02, 00:40:04,VALID,1004.68,VALID,0,VALID,94.4684,VALID,0,VALID,24.4609,VALID,304,VALID,0.177344,
2009-05-02, 00:41:04,VALID,1004.67,VALID,0,VALID,94.4532,VALID,0,VALID,24.4804,VALID,304,VALID,0.210547,
2009-05-02, 00:42:04,VALID,1004.69,VALID,0,VALID,94.4303,VALID,0.100563,VALID,24.4804,VALID,304,VALID,0.0265625,
2009-05-02, 00:43:04,VALID,1004.69,VALID,0,VALID,94.4227,VALID,0,VALID,24.5212,VALID,304,VALID,0,
2009-05-02, 00:44:04,VALID,1004.71,VALID,0,VALID,94.3998,VALID,0,VALID,24.4998,VALID,304,VALID,0,
2009-05-02, 00:45:04,VALID,1004.71,VALID,0,VALID,94.3769,VALID,0.100563,VALID,24.4998,VALID,304,VALID,0,
2009-05-02, 00:46:04,VALID,1004.71,VALID,0,VALID,94.4074,VALID,0.100563,VALID,24.4998,VALID,304,VALID,0,
2009-05-02, 00:47:04,VALID,1004.69,VALID,0,VALID,94.4074,VALID,0,VALID,24.4998,VALID,304,VALID,0.294922,
2009-05-02, 00:48:04,VALID,1004.67,VALID,0,VALID,94.4455,VALID,0.100563,VALID,24.5193,VALID,304,VALID,0.405859,
2009-05-02, 00:49:04,VALID,1004.65,VALID,0,VALID,94.4379,VALID,0,VALID,24.4998,VALID,304,VALID,0.489062,
2009-05-02, 00:50:04,VALID,1004.61,VALID,0,VALID,94.3692,VALID,0.100563,VALID,24.4998,VALID,304,VALID,0.45625,
2009-05-02, 00:51:04,VALID,1004.62,VALID,0,VALID,94.3845,VALID,0,VALID,24.4998,VALID,304,VALID,0.269531,
2009-05-02, 00:52:04,VALID,1004.58,VALID,0,VALID,94.3998,VALID,0,VALID,24.4804,VALID,304,VALID,0,
2009-05-02, 00:53:04,VALID,1004.6,VALID,0,VALID,94.3769,VALID,0.100563,VALID,24.4822,VALID,304,VALID,0,
2009-05-02, 00:54:04,VALID,1004.59,VALID,0,VALID,94.3769,VALID,0,VALID,24.4822,VALID,304,VALID,0,
2009-05-02, 00:55:04,VALID,1004.56,VALID,0,VALID,94.415,VALID,0.100563,VALID,24.4822,VALID,304,VALID,0,
2009-05-02, 00:56:04,VALID,1004.57,VALID,0,VALID,94.3921,VALID,0.100563,VALID,24.4609,VALID,304,VALID,0,
2009-05-02, 00:57:04,VALID,1004.58,VALID,0,VALID,94.4303,VALID,0,VALID,24.4414,VALID,304,VALID,0,
2009-05-02, 00:58:04,VALID,1004.58,VALID,0,VALID,94.4761,VALID,0,VALID,24.4822,VALID,304,VALID,0,
2009-05-02, 00:59:04,VALID,1004.56,VALID,0,VALID,94.4989,VALID,0,VALID,24.4822,VALID,304,VALID,0.0261719,
2009-05-02, 01:00:04,VALID,1004.56,VALID,0,VALID,94.5295,VALID,0,VALID,24.5017,VALID,304,VALID,0,
2009-05-02, 01:01:04,VALID,1004.53,VALID,0,VALID,94.5447,VALID,0,VALID,24.523,VALID,304,VALID,0.186328,
2009-05-02, 01:02:04,VALID,1004.51,VALID,0,VALID,94.5523,VALID,0,VALID,24.5406,VALID,304,VALID,0.360156,
2009-05-02, 01:03:04,VALID,1004.5,VALID,0,VALID,94.5371,VALID,0,VALID,24.5406,VALID,304,VALID,0.379297,
2009-05-02, 01:04:04,VALID,1004.5,VALID,0,VALID,94.5447,VALID,0,VALID,24.5212,VALID,304,VALID,0.315234,
2009-05-02, 01:05:04,VALID,1004.52,VALID,0,VALID,94.56,VALID,0,VALID,24.5425,VALID,304,VALID,0.345703,
2009-05-02, 01:06:04,VALID,1004.52,VALID,0,VALID,94.5752,VALID,0,VALID,24.562,VALID,304,VALID,0.319531,
2009-05-02, 01:07:04,VALID,1004.55,VALID,0,VALID,94.6134,VALID,0,VALID,24.5406,VALID,304,VALID,0.270312,
2009-05-02, 01:08:04,VALID,1004.55,VALID,0,VALID,94.5905,VALID,0,VALID,24.5193,VALID,304,VALID,0.484766,
2009-05-02, 01:09:04,VALID,1004.55,VALID,0,VALID,94.5676,VALID,0,VALID,24.562,VALID,304,VALID,0.501953,
2009-05-02, 01:10:04,VALID,1004.54,VALID,0,VALID,94.5676,VALID,0,VALID,24.562,VALID,304,VALID,0.533203,
2009-05-02, 01:11:04,VALID,1004.53,VALID,0,VALID,94.621,VALID,0,VALID,24.5814,VALID,304,VALID,0.463672,
2009-05-02, 01:12:04,VALID,1004.5,VALID,0,VALID,94.6363,VALID,0,VALID,24.5972,VALID,304,VALID,0.369922,
2009-05-02, 01:13:04,VALID,1004.49,VALID,0,VALID,94.6744,VALID,0,VALID,24.6166,VALID,304,VALID,0.501953,
2009-05-02, 01:14:04,VALID,1004.44,VALID,0,VALID,94.6973,VALID,0,VALID,24.6556,VALID,304,VALID,0.483203,
2009-05-02, 01:15:04,VALID,1004.45,VALID,0,VALID,94.7049,VALID,0,VALID,24.6964,VALID,304,VALID,0.423047,
2009-05-02, 01:16:04,VALID,1004.42,VALID,0,VALID,94.7278,VALID,0,VALID,24.6945,VALID,320,VALID,0.536719,
2009-05-02, 01:17:04,VALID,1004.43,VALID,0,VALID,94.7736,VALID,0,VALID,24.7335,VALID,320,VALID,0.375781,
2009-05-02, 01:18:04,VALID,1004.43,VALID,0,VALID,94.7507,VALID,0.100563,VALID,24.7529,VALID,320,VALID,0.191016,
2009-05-02, 01:19:04,VALID,1004.41,VALID,0,VALID,94.6897,VALID,0,VALID,24.7937,VALID,320,VALID,0.00585938,
2009-05-02, 01:20:04,VALID,1004.39,VALID,0,VALID,94.6668,VALID,0,VALID,24.7529,VALID,320,VALID,0,
2009-05-02, 01:21:04,VALID,1004.42,VALID,0,VALID,94.6515,VALID,0,VALID,24.7743,VALID,320,VALID,0,
2009-05-02, 01:22:04,VALID,1004.4,VALID,0,VALID,94.6363,VALID,0,VALID,24.7529,VALID,320,VALID,0,
2009-05-02, 01:23:04,VALID,1004.44,VALID,0,VALID,94.6515,VALID,0,VALID,24.7529,VALID,320,VALID,0,
2009-05-02, 01:24:04,VALID,1004.41,VALID,0,VALID,94.6515,VALID,0,VALID,24.7335,VALID,320,VALID,0.378125,
2009-05-02, 01:25:04,VALID,1004.42,VALID,0,VALID,94.6515,VALID,0,VALID,24.7529,VALID,320,VALID,0.366406,
2009-05-02, 01:26:04,VALID,1004.42,VALID,0,VALID,94.621,VALID,0,VALID,24.7743,VALID,320,VALID,0.372656,
2009-05-02, 01:27:04,VALID,1004.44,VALID,0,VALID,94.6363,VALID,0,VALID,24.7548,VALID,320,VALID,0.299609,
2009-05-02, 01:28:04,VALID,1004.41,VALID,0,VALID,94.6363,VALID,0,VALID,24.7743,VALID,320,VALID,0.272656,
2009-05-02, 01:29:04,VALID,1004.42,VALID,0,VALID,94.6286,VALID,0,VALID,24.7548,VALID,320,VALID,0.413281,
2009-05-02, 01:30:04,VALID,1004.4,VALID,0,VALID,94.6363,VALID,0,VALID,24.7743,VALID,320,VALID,0.241406,
2009-05-02, 01:31:04,VALID,1004.43,VALID,0,VALID,94.6591,VALID,0,VALID,24.7937,VALID,320,VALID,0.290625,
2009-05-02, 01:32:04,VALID,1004.39,VALID,0,VALID,94.6515,VALID,0,VALID,24.7937,VALID,320,VALID,0.457812,
2009-05-02, 01:33:04,VALID,1004.37,VALID,0,VALID,94.6515,VALID,0,VALID,24.7937,VALID,320,VALID,0.347266,
2009-05-02, 01:34:04,VALID,1004.35,VALID,0,VALID,94.6363,VALID,0,VALID,24.7937,VALID,332,VALID,0.482031,
2009-05-02, 01:35:04,VALID,1004.35,VALID,0,VALID,94.6515,VALID,0,VALID,24.8132,VALID,332,VALID,0.315234,
2009-05-02, 01:36:04,VALID,1004.35,VALID,0,VALID,94.6668,VALID,0,VALID,24.8346,VALID,332,VALID,0.230859,
2009-05-02, 01:37:04,VALID,1004.32,VALID,0,VALID,94.6515,VALID,0,VALID,24.8327,VALID,332,VALID,0.287109,
2009-05-02, 01:38:04,VALID,1004.34,VALID,0,VALID,94.6744,VALID,0,VALID,24.8327,VALID,332,VALID,0.226563,
2009-05-02, 01:39:04,VALID,1004.33,VALID,0,VALID,94.6363,VALID,0,VALID,24.8327,VALID,332,VALID,0.277734,
2009-05-02, 01:40:04,VALID,1004.35,VALID,0,VALID,94.6134,VALID,0,VALID,24.8327,VALID,332,VALID,0.390625,
2009-05-02, 01:41:04,VALID,1004.33,VALID,0,VALID,94.5981,VALID,0,VALID,24.8327,VALID,332,VALID,0.274219,
2009-05-02, 01:42:04,VALID,1004.33,VALID,0,VALID,94.6057,VALID,0,VALID,24.8308,VALID,332,VALID,0.351953,
2009-05-02, 01:43:04,VALID,1004.3,VALID,0,VALID,94.6057,VALID,0,VALID,24.8716,VALID,332,VALID,0.226953,
2009-05-02, 01:44:04,VALID,1004.26,VALID,0,VALID,94.6057,VALID,0.100563,VALID,24.8697,VALID,332,VALID,0.269922,
2009-05-02, 01:45:04,VALID,1004.24,VALID,0,VALID,94.6363,VALID,0,VALID,24.8911,VALID,332,VALID,0.232812,
2009-05-02, 01:46:04,VALID,1004.2,VALID,0,VALID,94.6439,VALID,0.100563,VALID,24.8892,VALID,332,VALID,0.239844,
2009-05-02, 01:47:04,VALID,1004.2,VALID,0,VALID,94.6286,VALID,0,VALID,24.9087,VALID,332,VALID,0.203906,
2009-05-02, 01:48:04,VALID,1004.2,VALID,0,VALID,94.6439,VALID,0,VALID,24.93,VALID,332,VALID,0.150781,
2009-05-02, 01:49:04,VALID,1004.16,VALID,0,VALID,94.6286,VALID,0,VALID,24.9087,VALID,332,VALID,0.252734,
2009-05-02, 01:50:04,VALID,1004.16,VALID,0,VALID,94.621,VALID,0,VALID,24.93,VALID,332,VALID,0.257422,
2009-05-02, 01:51:04,VALID,1004.17,VALID,0,VALID,94.6744,VALID,0,VALID,24.9087,VALID,332,VALID,0.266797,
2009-05-02, 01:52:04,VALID,1004.13,VALID,0,VALID,94.6744,VALID,0,VALID,24.9476,VALID,332,VALID,0.298828,
2009-05-02, 01:53:04,VALID,1004.14,VALID,0,VALID,94.6744,VALID,0,VALID,24.9885,VALID,332,VALID,0.228516,
2009-05-02, 01:54:04,VALID,1004.15,VALID,0,VALID,94.682,VALID,0,VALID,25.0079,VALID,332,VALID,0.300781,
2009-05-02, 01:55:04,VALID,1004.15,VALID,0,VALID,94.6591,VALID,0,VALID,25.0274,VALID,332,VALID,0.316797,
2009-05-02, 01:56:04,VALID,1004.15,VALID,0,VALID,94.6668,VALID,0,VALID,25.0274,VALID,332,VALID,0.322266,
2009-05-02, 01:57:04,VALID,1004.11,VALID,0,VALID,94.6515,VALID,0.100563,VALID,25.0255,VALID,332,VALID,0.25625,
2009-05-02, 01:58:04,VALID,1004.13,VALID,0,VALID,94.6439,VALID,0,VALID,25.0469,VALID,332,VALID,0.33125,
2009-05-02, 01:59:04,VALID,1004.07,VALID,0,VALID,94.6363,VALID,0,VALID,25.0255,VALID,332,VALID,0.300391,
2009-05-02, 02:00:04,VALID,1004.1,VALID,0,VALID,94.6134,VALID,0.100563,VALID,25.0255,VALID,332,VALID,0.270703,
2009-05-02, 02:01:04,VALID,1004.08,VALID,0,VALID,94.621,VALID,0,VALID,25.045,VALID,332,VALID,0.333984,
2009-05-02, 02:02:04,VALID,1004.06,VALID,0,VALID,94.6286,VALID,0.100563,VALID,25.0644,VALID,332,VALID,0.387109,
2009-05-02, 02:03:04,VALID,1004.04,VALID,0,VALID,94.6057,VALID,0,VALID,25.045,VALID,332,VALID,0.48125,
2009-05-02, 02:04:04,VALID,1004.04,VALID,0,VALID,94.6134,VALID,0,VALID,25.0644,VALID,332,VALID,0.417578,
2009-05-02, 02:05:05,VALID,1004.02,VALID,0,VALID,94.6057,VALID,0.100563,VALID,25.0839,VALID,332,VALID,0.411719,
2009-05-02, 02:06:04,VALID,1003.99,VALID,0,VALID,94.5829,VALID,0,VALID,25.0839,VALID,332,VALID,0.316016,
2009-05-02, 02:07:05,VALID,1003.98,VALID,0,VALID,94.5981,VALID,0,VALID,25.1053,VALID,332,VALID,0.313672,
2009-05-02, 02:08:05,VALID,1003.98,VALID,0,VALID,94.6286,VALID,0,VALID,25.1229,VALID,332,VALID,0.284766,
2009-05-02, 02:09:05,VALID,1003.98,VALID,0,VALID,94.6515,VALID,0,VALID,25.1442,VALID,332,VALID,0.287109,
2009-05-02, 02:10:05,VALID,1003.95,VALID,0,VALID,94.6286,VALID,0,VALID,25.1423,VALID,332,VALID,0.310547,
2009-05-02, 02:11:05,VALID,1003.96,VALID,0,VALID,94.6057,VALID,0,VALID,25.1423,VALID,332,VALID,0.289063,
2009-05-02, 02:12:05,VALID,1003.96,VALID,0,VALID,94.5981,VALID,0,VALID,25.1618,VALID,332,VALID,0,
2009-05-02, 02:13:05,VALID,1003.98,VALID,0,VALID,94.5981,VALID,0,VALID,25.1404,VALID,332,VALID,0.267578,
2009-05-02, 02:14:05,VALID,1003.99,VALID,0,VALID,94.5829,VALID,0,VALID,25.1637,VALID,332,VALID,0.335156,
2009-05-02, 02:15:05,VALID,1004,VALID,0,VALID,94.5829,VALID,0,VALID,25.1832,VALID,332,VALID,0.305078,
2009-05-02, 02:16:05,VALID,1004,VALID,0,VALID,94.6057,VALID,0,VALID,25.1813,VALID,332,VALID,0.271484,
2009-05-02, 02:17:05,VALID,1003.97,VALID,0,VALID,94.6134,VALID,0,VALID,25.2027,VALID,332,VALID,0.379297,
2009-05-02, 02:18:05,VALID,1003.99,VALID,0,VALID,94.6057,VALID,0.100563,VALID,25.1813,VALID,332,VALID,0.339063,
2009-05-02, 02:19:05,VALID,1003.99,VALID,0,VALID,94.6286,VALID,0,VALID,25.2007,VALID,332,VALID,0.346875,
2009-05-02, 02:20:05,VALID,1003.98,VALID,0,VALID,94.5981,VALID,0,VALID,25.2202,VALID,332,VALID,0.492578,
2009-05-02, 02:21:05,VALID,1004.01,VALID,0,VALID,94.5752,VALID,0,VALID,25.2007,VALID,334,VALID,0.529297,
2009-05-02, 02:22:05,VALID,1004,VALID,0,VALID,94.5295,VALID,0,VALID,25.2221,VALID,339,VALID,0.513281,
2009-05-02, 02:23:05,VALID,1003.99,VALID,0,VALID,94.4913,VALID,0,VALID,25.2027,VALID,350,VALID,0.680078,
2009-05-02, 02:24:05,VALID,1003.99,VALID,0,VALID,94.4837,VALID,0,VALID,25.1832,VALID,350,VALID,0.773438,
2009-05-02, 02:25:05,VALID,1003.99,VALID,0,VALID,94.4608,VALID,0,VALID,25.1618,VALID,360,VALID,0.55,
2009-05-02, 02:26:05,VALID,1003.99,VALID,0,VALID,94.4532,VALID,0,VALID,25.1832,VALID,358,VALID,0.398828,
2009-05-02, 02:27:05,VALID,1003.97,VALID,0,VALID,94.3998,VALID,0,VALID,25.1423,VALID,357,VALID,0.436719,
2009-05-02, 02:28:05,VALID,1003.97,VALID,0,VALID,94.3845,VALID,0,VALID,25.1637,VALID,357,VALID,0.273047,
2009-05-02, 02:29:05,VALID,1003.97,VALID,0,VALID,94.3921,VALID,0,VALID,25.1832,VALID,357,VALID,0.0910156,
2009-05-02, 02:30:05,VALID,1003.95,VALID,0,VALID,94.3464,VALID,0,VALID,25.1637,VALID,357,VALID,0,
2009-05-02, 02:31:05,VALID,1003.95,VALID,0,VALID,94.354,VALID,0,VALID,25.1637,VALID,357,VALID,0,
2009-05-02, 02:32:05,VALID,1003.92,VALID,0,VALID,94.3235,VALID,0,VALID,25.1229,VALID,357,VALID,0,
2009-05-02, 02:33:05,VALID,1003.93,VALID,0,VALID,94.3082,VALID,0,VALID,25.1656,VALID,357,VALID,0,
2009-05-02, 02:34:05,VALID,1003.93,VALID,0,VALID,94.2777,VALID,0,VALID,25.1034,VALID,357,VALID,0,
2009-05-02, 02:35:05,VALID,1003.98,VALID,0,VALID,94.2548,VALID,0,VALID,25.1053,VALID,357,VALID,0,
2009-05-02, 02:36:05,VALID,1003.97,VALID,0,VALID,94.2548,VALID,0,VALID,25.1053,VALID,357,VALID,0.392969,
2009-05-02, 02:37:05,VALID,1003.97,VALID,0,VALID,94.2319,VALID,0,VALID,25.1053,VALID,357,VALID,0.382422,
2009-05-02, 02:38:05,VALID,1003.98,VALID,0,VALID,94.2548,VALID,0,VALID,25.0644,VALID,357,VALID,0.373047,
2009-05-02, 02:39:05,VALID,1003.97,VALID,0,VALID,94.2701,VALID,0,VALID,25.0858,VALID,357,VALID,0.351172,
2009-05-02, 02:40:05,VALID,1003.97,VALID,0,VALID,94.2548,VALID,0,VALID,25.0663,VALID,357,VALID,0.301953,
2009-05-02, 02:41:05,VALID,1003.97,VALID,0,VALID,94.2624,VALID,0,VALID,25.0663,VALID,357,VALID,0.0207031,
2009-05-02, 02:42:05,VALID,1003.98,VALID,0,VALID,94.2548,VALID,0,VALID,25.0255,VALID,357,VALID,0.211719,
2009-05-02, 02:43:05,VALID,1003.99,VALID,0,VALID,94.2853,VALID,0,VALID,25.0469,VALID,357,VALID,0.0964844,
2009-05-02, 02:44:05,VALID,1004,VALID,0,VALID,94.2777,VALID,0,VALID,25.0274,VALID,357,VALID,0,
2009-05-02, 02:45:05,VALID,1004.02,VALID,0,VALID,94.3235,VALID,0,VALID,25.0469,VALID,357,VALID,0.101563,
2009-05-02, 02:46:05,VALID,1004.04,VALID,0,VALID,94.3235,VALID,0,VALID,25.0469,VALID,357,VALID,0.000390625,
2009-05-02, 02:47:05,VALID,1004.04,VALID,0,VALID,94.3616,VALID,0,VALID,25.0255,VALID,357,VALID,0.00703125,
2009-05-02, 02:48:05,VALID,1004.07,VALID,0,VALID,94.3616,VALID,0,VALID,25.0255,VALID,357,VALID,0,
2009-05-02, 02:49:05,VALID,1004.08,VALID,0,VALID,94.354,VALID,0,VALID,25.0469,VALID,357,VALID,0.0101562,
2009-05-02, 02:50:05,VALID,1004.1,VALID,0,VALID,94.3845,VALID,0,VALID,25.0255,VALID,357,VALID,0.0269531,
2009-05-02, 02:51:05,VALID,1004.1,VALID,0,VALID,94.415,VALID,0,VALID,25.0255,VALID,357,VALID,0,
2009-05-02, 02:52:05,VALID,1004.12,VALID,0,VALID,94.4074,VALID,0,VALID,25.045,VALID,357,VALID,0,
2009-05-02, 02:53:05,VALID,1004.13,VALID,0,VALID,94.4227,VALID,0,VALID,25.045,VALID,357,VALID,0,
2009-05-02, 02:54:05,VALID,1004.16,VALID,0,VALID,94.4303,VALID,0,VALID,25.0858,VALID,357,VALID,0,
2009-05-02, 02:55:05,VALID,1004.15,VALID,0,VALID,94.415,VALID,0,VALID,25.0469,VALID,357,VALID,0.0460938,
2009-05-02, 02:56:05,VALID,1004.18,VALID,0,VALID,94.4532,VALID,0,VALID,25.0644,VALID,357,VALID,0.150781,
2009-05-02, 02:57:05,VALID,1004.17,VALID,0,VALID,94.4684,VALID,0,VALID,25.0858,VALID,357,VALID,0.146484,
2009-05-02, 02:58:05,VALID,1004.16,VALID,0,VALID,94.4989,VALID,0,VALID,25.1053,VALID,357,VALID,0.258594,
2009-05-02, 02:59:05,VALID,1004.15,VALID,0,VALID,94.4608,VALID,0,VALID,25.1248,VALID,357,VALID,0.342578,
2009-05-02, 03:00:05,VALID,1004.17,VALID,0,VALID,94.4684,VALID,0,VALID,25.1053,VALID,357,VALID,0.226563,
2009-05-02, 03:01:05,VALID,1004.18,VALID,0,VALID,94.4303,VALID,0,VALID,25.1248,VALID,357,VALID,0.146094,
2009-05-02, 03:02:05,VALID,1004.19,VALID,0,VALID,94.415,VALID,0,VALID,25.0839,VALID,357,VALID,0,
2009-05-02, 03:03:05,VALID,1004.24,VALID,0,VALID,94.3921,VALID,0,VALID,25.1248,VALID,357,VALID,0,
2009-05-02, 03:04:05,VALID,1004.29,VALID,0,VALID,94.4379,VALID,0,VALID,25.1248,VALID,357,VALID,0.203125,
2009-05-02, 03:05:05,VALID,1004.35,VALID,0,VALID,94.415,VALID,0,VALID,25.1442,VALID,32,VALID,0.450781,
2009-05-02, 03:06:05,VALID,1004.37,VALID,0,VALID,94.4303,VALID,0,VALID,25.1637,VALID,62,VALID,0.374609,
2009-05-02, 03:07:05,VALID,1004.38,VALID,0,VALID,94.415,VALID,0,VALID,25.1618,VALID,75,VALID,0.700781,
2009-05-02, 03:08:05,VALID,1004.43,VALID,0,VALID,94.3845,VALID,0,VALID,25.1423,VALID,77,VALID,0.373047,
2009-05-02, 03:09:05,VALID,1004.43,VALID,0,VALID,94.3845,VALID,0,VALID,25.1832,VALID,76,VALID,0.541797,
2009-05-02, 03:10:05,VALID,1004.43,VALID,0,VALID,94.3311,VALID,0,VALID,25.1832,VALID,75,VALID,0.205469,
2009-05-02, 03:11:05,VALID,1004.42,VALID,0,VALID,94.3082,VALID,0,VALID,25.2027,VALID,75,VALID,0.117578,
2009-05-02, 03:12:05,VALID,1004.44,VALID,0,VALID,94.293,VALID,0,VALID,25.1618,VALID,75,VALID,0.231641,
2009-05-02, 03:13:05,VALID,1004.44,VALID,0,VALID,94.2472,VALID,0,VALID,25.1832,VALID,75,VALID,0.290625,
2009-05-02, 03:14:05,VALID,1004.46,VALID,0,VALID,94.2396,VALID,0,VALID,25.1618,VALID,75,VALID,0.363281,
2009-05-02, 03:15:05,VALID,1004.5,VALID,0,VALID,94.2167,VALID,0,VALID,25.1851,VALID,75,VALID,0.187109,
2009-05-02, 03:16:05,VALID,1004.5,VALID,0,VALID,94.1862,VALID,0,VALID,25.1637,VALID,75,VALID,0.239844,
2009-05-02, 03:17:05,VALID,1004.53,VALID,0,VALID,94.148,VALID,0,VALID,25.1423,VALID,75,VALID,0.142578,
2009-05-02, 03:18:05,VALID,1004.51,VALID,0,VALID,94.1251,VALID,0,VALID,25.1442,VALID,75,VALID,0.244141,
2009-05-02, 03:19:05,VALID,1004.49,VALID,0,VALID,94.1404,VALID,0,VALID,25.1229,VALID,75,VALID,0.242969,
2009-05-02, 03:20:05,VALID,1004.45,VALID,0,VALID,94.1328,VALID,0,VALID,25.1248,VALID,75,VALID,0.040625,
2009-05-02, 03:21:05,VALID,1004.44,VALID,0,VALID,94.1404,VALID,0,VALID,25.1248,VALID,75,VALID,0.105078,
2009-05-02, 03:22:05,VALID,1004.43,VALID,0,VALID,94.148,VALID,0,VALID,25.1248,VALID,75,VALID,0.178516,
2009-05-02, 03:23:05,VALID,1004.41,VALID,0,VALID,94.1328,VALID,0,VALID,25.1034,VALID,75,VALID,0.266797,
2009-05-02, 03:24:05,VALID,1004.42,VALID,0,VALID,94.1404,VALID,0,VALID,25.1248,VALID,75,VALID,0.126172,
2009-05-02, 03:25:05,VALID,1004.39,VALID,0,VALID,94.1251,VALID,0,VALID,25.1053,VALID,75,VALID,0.046875,
2009-05-02, 03:26:05,VALID,1004.41,VALID,0,VALID,94.1099,VALID,0,VALID,25.1053,VALID,75,VALID,0.0359375,
2009-05-02, 03:27:05,VALID,1004.38,VALID,0,VALID,94.1175,VALID,0,VALID,25.0858,VALID,75,VALID,0.208594,
2009-05-02, 03:28:05,VALID,1004.38,VALID,0,VALID,94.1022,VALID,0,VALID,25.0644,VALID,75,VALID,0.332422,
2009-05-02, 03:29:05,VALID,1004.39,VALID,0,VALID,94.1251,VALID,0,VALID,25.0663,VALID,75,VALID,0.447656,
2009-05-02, 03:30:05,VALID,1004.37,VALID,0,VALID,94.1328,VALID,0.100563,VALID,25.0663,VALID,75,VALID,0.398047,
2009-05-02, 03:31:05,VALID,1004.37,VALID,0,VALID,94.1251,VALID,0,VALID,25.0255,VALID,75,VALID,0.380078,
2009-05-02, 03:32:05,VALID,1004.34,VALID,0,VALID,94.1251,VALID,0,VALID,25.0274,VALID,75,VALID,0.140234,
2009-05-02, 03:33:05,VALID,1004.36,VALID,0,VALID,94.1175,VALID,0,VALID,25.0274,VALID,75,VALID,0.345703,
2009-05-02, 03:34:05,VALID,1004.37,VALID,0,VALID,94.1099,VALID,0,VALID,24.9866,VALID,75,VALID,0.0910156,
2009-05-02, 03:35:05,VALID,1004.39,VALID,0,VALID,94.1099,VALID,0,VALID,25.0079,VALID,75,VALID,0.0546875,
2009-05-02, 03:36:05,VALID,1004.39,VALID,0,VALID,94.1404,VALID,0,VALID,24.9671,VALID,75,VALID,0.152734,
2009-05-02, 03:37:05,VALID,1004.37,VALID,0,VALID,94.1251,VALID,0,VALID,24.9495,VALID,75,VALID,0.0582031,
2009-05-02, 03:38:05,VALID,1004.39,VALID,0,VALID,94.1556,VALID,0,VALID,24.9495,VALID,75,VALID,0.0464844,
2009-05-02, 03:39:05,VALID,1004.33,VALID,0,VALID,94.1633,VALID,0,VALID,24.9495,VALID,75,VALID,0.000390625,
2009-05-02, 03:40:05,VALID,1004.35,VALID,0,VALID,94.1251,VALID,0,VALID,24.93,VALID,75,VALID,0.198437,
2009-05-02, 03:41:05,VALID,1004.35,VALID,0,VALID,94.1175,VALID,0,VALID,24.9106,VALID,75,VALID,0,
2009-05-02, 03:42:05,VALID,1004.31,VALID,0,VALID,94.0946,VALID,0,VALID,24.8716,VALID,75,VALID,0,
2009-05-02, 03:43:05,VALID,1004.33,VALID,0,VALID,94.0717,VALID,0,VALID,24.8522,VALID,75,VALID,0,
2009-05-02, 03:44:05,VALID,1004.33,VALID,0,VALID,94.0565,VALID,0,VALID,24.8113,VALID,75,VALID,0,
2009-05-02, 03:45:05,VALID,1004.31,VALID,0,VALID,94.0565,VALID,0,VALID,24.7937,VALID,75,VALID,0.0800781,